• In Czech Republic
  • List of Countries
  • For 7 days
  • Water Temperature
  • Satellite Maps
  • Weather Map
  • Weather Widgets
  • user-avatar
    Login

    Hourly Weather Kindia

    Today, 22 October, Monday

    Time Temperature Precipitation Wind Pressure Humidity
    00:00 +30°C° 0 mm 1 mps 705 mmHg 33%
    01:00 +29°C° 0 mm 1 mps 705 mmHg 33%
    02:00 +29°C° 0 mm 1 mps 705 mmHg 34%
    03:00 +28°C° 0 mm 1 mps 705 mmHg 34%
    04:00 +28°C° 0 mm 1 mps 705 mmHg 34%
    05:00 +28°C° 0 mm 1 mps 705 mmHg 35%
    06:00 +28°C° 0 mm 1 mps 706 mmHg 36%
    07:00 +28°C° 0 mm 1 mps 706 mmHg 38%
    08:00 +31°C° 0 mm 1 mps 706 mmHg 34%
    09:00 +33°C° 0 mm 1 mps 707 mmHg 30%
    10:00 +37°C° 0 mm 2 mps 708 mmHg 27%
    11:00 +38°C° 0 mm 2 mps 707 mmHg 24%
    12:00 +39°C° 0 mm 2 mps 706 mmHg 21%
    13:00 +40°C° 0 mm 2 mps 706 mmHg 19%
    14:00 +40°C° 0 mm 2 mps 705 mmHg 18%
    15:00 +40°C° 0 mm 2 mps 704 mmHg 18%
    16:00 +40°C° 0 mm 2 mps 704 mmHg 18%
    17:00 +38°C° 0 mm 2 mps 704 mmHg 21%
    18:00 +36°C° 0 mm 2 mps 704 mmHg 25%
    19:00 +32°C° 0 mm 1 mps 704 mmHg 28%
    20:00 +32°C° 0 mm 1 mps 705 mmHg 29%
    21:00 +31°C° 0 mm 1 mps 705 mmHg 31%
    22:00 +28°C° 0 mm 0 mps 706 mmHg 32%
    23:00 +28°C° 0 mm 0 mps 706 mmHg 32%

    Tomorrow, 23 October, Tuesday

    Time Temperature Precipitation Wind Pressure Humidity
    00:00 +30°C° 0 mm 1 mps 706 mmHg 33%
    01:00 +30°C° 0 mm 1 mps 705 mmHg 33%
    02:00 +30°C° 0 mm 1 mps 705 mmHg 33%
    03:00 +29°C° 0 mm 1 mps 705 mmHg 33%
    04:00 +29°C° 0 mm 1 mps 705 mmHg 33%
    05:00 +29°C° 0.1 mm 1 mps 706 mmHg 37%
    06:00 +28°C° 0.1 mm 1 mps 706 mmHg 41%
    07:00 +28°C° 0.1 mm 1 mps 707 mmHg 45%
    08:00 +30°C° 0 mm 2 mps 707 mmHg 43%
    09:00 +32°C° 0 mm 2 mps 708 mmHg 41%
    10:00 +35°C° 0 mm 2 mps 709 mmHg 39%
    11:00 +37°C° 0 mm 2 mps 708 mmHg 34%
    12:00 +39°C° 0 mm 1 mps 707 mmHg 28%
    13:00 +41°C° 0 mm 1 mps 707 mmHg 23%
    14:00 +41°C° 0 mm 1 mps 706 mmHg 23%
    15:00 +40°C° 0 mm 1 mps 705 mmHg 23%
    16:00 +39°C° 0 mm 1 mps 704 mmHg 23%
    17:00 +36°C° 0 mm 1 mps 704 mmHg 27%
    18:00 +34°C° 0 mm 1 mps 704 mmHg 31%
    19:00 +32°C° 0 mm 1 mps 704 mmHg 34%
    20:00 +31°C° 0 mm 1 mps 705 mmHg 36%
    21:00 +30°C° 0 mm 1 mps 706 mmHg 38%
    22:00 +30°C° 0 mm 1 mps 706 mmHg 39%
    23:00 +29°C° 0.2 mm 1 mps 706 mmHg 42%

    Day after tomorrow, 24 October, Wednesday

    Time Temperature Precipitation Wind Pressure Humidity
    00:00 +29°C° 0.2 mm 1 mps 706 mmHg 45%
    01:00 +28°C° 0.2 mm 2 mps 706 mmHg 48%
    02:00 +27°C° 0 mm 1 mps 706 mmHg 54%
    03:00 +27°C° 0 mm 1 mps 706 mmHg 60%
    04:00 +26°C° 0 mm 1 mps 705 mmHg 66%
    05:00 +26°C° 0 mm 1 mps 706 mmHg 67%
    06:00 +27°C° 0 mm 1 mps 706 mmHg 68%
    07:00 +27°C° 0 mm 1 mps 707 mmHg 68%
    08:00 +29°C° 0 mm 2 mps 707 mmHg 60%
    09:00 +31°C° 0 mm 2 mps 708 mmHg 52%
    10:00 +35°C° 0 mm 3 mps 708 mmHg 44%
    11:00 +36°C° 0 mm 2 mps 708 mmHg 39%
    12:00 +38°C° 0 mm 2 mps 707 mmHg 34%
    13:00 +40°C° 0 mm 1 mps 706 mmHg 29%
    14:00 +39°C° 0 mm 1 mps 705 mmHg 30%
    15:00 +37°C° 0 mm 1 mps 705 mmHg 32%
    16:00 +34°C° 0 mm 0 mps 704 mmHg 33%
    17:00 +34°C° 0.2 mm 1 mps 704 mmHg 37%
    18:00 +33°C° 0.2 mm 1 mps 704 mmHg 42%
    19:00 +31°C° 0.2 mm 1 mps 704 mmHg 46%
    20:00 +31°C° 0 mm 1 mps 705 mmHg 47%
    21:00 +30°C° 0 mm 1 mps 705 mmHg 48%
    22:00 +30°C° 0 mm 1 mps 706 mmHg 49%
    23:00 +29°C° 0 mm 1 mps 705 mmHg 52%

    25 October, Thursday

    Time Temperature Precipitation Wind Pressure Humidity
    00:00 +29°C° 0 mm 1 mps 705 mmHg 55%
    01:00 +28°C° 0 mm 1 mps 705 mmHg 57%
    02:00 +27°C° 1.3 mm 2 mps 705 mmHg 64%
    03:00 +26°C° 1.3 mm 2 mps 705 mmHg 70%
    04:00 +25°C° 1.3 mm 2 mps 705 mmHg 77%
    05:00 +26°C° 1 mm 2 mps 706 mmHg 77%
    06:00 +26°C° 1 mm 2 mps 706 mmHg 78%
    07:00 +26°C° 1 mm 2 mps 707 mmHg 79%
    08:00 +27°C° 0 mm 2 mps 707 mmHg 74%
    09:00 +28°C° 0 mm 3 mps 708 mmHg 69%
    10:00 +30°C° 0 mm 3 mps 708 mmHg 63%
    11:00 +33°C° 0 mm 3 mps 707 mmHg 56%
    12:00 +34°C° 0 mm 2 mps 707 mmHg 48%
    13:00 +36°C° 0 mm 2 mps 706 mmHg 40%
    14:00 +36°C° 0 mm 2 mps 706 mmHg 38%
    15:00 +36°C° 0 mm 1 mps 705 mmHg 37%
    16:00 +36°C° 0 mm 1 mps 705 mmHg 35%
    17:00 +34°C° 0 mm 1 mps 705 mmHg 40%
    18:00 +32°C° 0 mm 1 mps 705 mmHg 44%
    19:00 +30°C° 0 mm 1 mps 705 mmHg 49%
    20:00 +30°C° 0 mm 1 mps 705 mmHg 52%
    21:00 +29°C° 0 mm 1 mps 706 mmHg 56%
    22:00 +28°C° 0 mm 1 mps 706 mmHg 59%
    23:00 +28°C° 0 mm 1 mps 706 mmHg 61%

    26 October, Friday

    Time Temperature Precipitation Wind Pressure Humidity
    00:00 +28°C° 0 mm 1 mps 706 mmHg 64%
    01:00 +27°C° 0 mm 1 mps 705 mmHg 66%
    02:00 +27°C° 0.1 mm 1 mps 705 mmHg 68%
    03:00 +27°C° 0.1 mm 1 mps 705 mmHg 70%
    04:00 +26°C° 0.1 mm 2 mps 705 mmHg 72%
    05:00 +26°C° 1 mm 2 mps 706 mmHg 74%
    06:00 +26°C° 1 mm 2 mps 707 mmHg 75%
    07:00 +26°C° 1 mm 2 mps 707 mmHg 77%
    08:00 +28°C° 0 mm 2 mps 708 mmHg 67%
    09:00 +30°C° 0 mm 2 mps 708 mmHg 58%
    10:00 +32°C° 0 mm 2 mps 708 mmHg 48%
    11:00 +34°C° 0 mm 2 mps 707 mmHg 43%
    12:00 +35°C° 0 mm 3 mps 707 mmHg 38%
    13:00 +37°C° 0 mm 3 mps 706 mmHg 32%
    14:00 +36°C° 0 mm 3 mps 705 mmHg 32%
    15:00 +36°C° 0 mm 3 mps 705 mmHg 31%
    16:00 +36°C° 0 mm 4 mps 705 mmHg 30%
    17:00 +34°C° 0 mm 3 mps 705 mmHg 35%
    18:00 +33°C° 0 mm 3 mps 705 mmHg 39%
    19:00 +30°C° 0 mm 2 mps 706 mmHg 43%
    20:00 +29°C° 0 mm 2 mps 706 mmHg 45%
    21:00 +29°C° 0 mm 1 mps 706 mmHg 47%
    22:00 +28°C° 0 mm 1 mps 706 mmHg 49%
    23:00 +28°C° 0 mm 1 mps 706 mmHg 50%

    27 October, Saturday

    Time Temperature Precipitation Wind Pressure Humidity
    00:00 +27°C° 0 mm 1 mps 706 mmHg 51%
    01:00 +27°C° 0 mm 1 mps 706 mmHg 52%
    02:00 +27°C° 0 mm 1 mps 706 mmHg 51%
    03:00 +27°C° 0 mm 1 mps 706 mmHg 51%
    04:00 +25°C° 0 mm 0 mps 706 mmHg 50%
    05:00 +25°C° 0 mm 0 mps 706 mmHg 50%
    06:00 +25°C° 0 mm 0 mps 707 mmHg 51%
    07:00 +25°C° 0 mm 0 mps 707 mmHg 51%
    08:00 +30°C° 0 mm 1 mps 708 mmHg 44%
    09:00 +33°C° 0 mm 1 mps 708 mmHg 37%
    10:00 +35°C° 0 mm 1 mps 708 mmHg 30%
    11:00 +37°C° 0 mm 2 mps 708 mmHg 27%
    12:00 +38°C° 0 mm 2 mps 707 mmHg 24%
    13:00 +39°C° 0 mm 2 mps 706 mmHg 21%
    14:00 +39°C° 0 mm 2 mps 706 mmHg 21%
    15:00 +39°C° 0 mm 2 mps 705 mmHg 22%
    16:00 +39°C° 0 mm 2 mps 705 mmHg 22%
    17:00 +37°C° 0 mm 2 mps 705 mmHg 25%
    18:00 +35°C° 0 mm 2 mps 705 mmHg 29%
    19:00 +32°C° 0 mm 1 mps 705 mmHg 32%
    20:00 +31°C° 0 mm 1 mps 706 mmHg 34%
    21:00 +30°C° 0 mm 1 mps 706 mmHg 36%
    22:00 +28°C° 0 mm 0 mps 706 mmHg 38%
    23:00 +29°C° 0 mm 1 mps 706 mmHg 38%
    Show more